QPF
0.00 0.00 0.00 0.00 0.00 0.01 0.01 0.02 0.05 0.04 0.04 0.06 0.07 0.15 0.21 0.26 0.29 0.31 0.29 0.29 0.21 0.15 0.14 0.16 0.09 0.06 0.05 0.04 0.04 0.07 0.07 0.06 0.06 0.06 0.04 0.03 0.03 0.02 0.03 0.03 0.02 0.02 0.02 0.03
0.00 0.00 0.00 0.00 0.00 0.01 0.01 0.02 0.04 0.05 0.08 0.12 0.09 0.15 0.21 0.19 0.20 0.22 0.27 0.17 0.09 0.09 0.09 0.09 0.07 0.05 0.04 0.05 0.04 0.03 0.04 0.05 0.05 0.04 0.02 0.01 0.01 0.01 0.01 0.01 0.01 0.01 0.01 0.02
0.00 0.00 0.00 0.00 0.00 0.00 0.01 0.01 0.02 0.05 0.08 0.12 0.12 0.23 0.26 0.19 0.19 0.18 0.18 0.14 0.09 0.06 0.05 0.04 0.04 0.03 0.02 0.03 0.03 0.02 0.03 0.04 0.03 0.02 0.01 0.00 0.00 0.00 0.00 0.00 0.01 0.01 0.01 0.01
0.00 0.00 0.00 0.00 0.00 0.00 0.00 0.00 0.01 0.04 0.07 0.12 0.15 0.17 0.20 0.13 0.12 0.11 0.12 0.10 0.07 0.05 0.05 0.03 0.03 0.02 0.02 0.03 0.02 0.02 0.02 0.03 0.03 0.02 0.00 0.00 0.00 0.00 0.00 0.00 0.01 0.01 0.01 0.01
0.00 0.00 0.01 0.00 0.00 0.00 0.01 0.01 0.01 0.03 0.05 0.08 0.12 0.13 0.13 0.11 0.09 0.08 0.08 0.05 0.04 0.03 0.03 0.03 0.04 0.03 0.02 0.02 0.01 0.00 0.01 0.02 0.02 0.01 0.00 0.00 0.00 0.00 0.00 0.00 0.00 0.00 0.00 0.01
0.00 0.01 0.01 0.01 0.00 0.00 0.01 0.01 0.03 0.04 0.05 0.06 0.07 0.12 0.13 0.09 0.05 0.04 0.04 0.02 0.02 0.02 0.02 0.02 0.02 0.02 0.01 0.01 0.01 0.01 0.00 0.00 0.00 0.00 0.00 0.00 0.01 0.00 0.00 0.00 0.00 0.00 0.00 0.00
0.01 0.01 0.02 0.01 0.00 0.00 0.01 0.02 0.04 0.06 0.08 0.08 0.06 0.07 0.06 0.05 0.03 0.01 0.01 0.02 0.02 0.02 0.02 0.01 0.01 0.01 0.01 0.00 0.01 0.01 0.00 0.00 0.00 0.00 0.00 0.00 0.00 0.00 0.00 0.00 0.00 0.00 0.00 0.00
0.01 0.01 0.02 0.01 0.01 0.01 0.01 0.02 0.04 0.07 0.07 0.11 0.10 0.13 0.06 0.03 0.02 0.02 0.01 0.02 0.02 0.02 0.01 0.00 0.00 0.00 0.00 0.00 0.00 0.00 0.00 0.00 0.00 0.00 0.00 0.00 0.00 0.00 0.00 0.00 0.00 0.00 0.00 0.00
0.01 0.01 0.01 0.01 0.01 0.01 0.01 0.01 0.02 0.05 0.10 0.22 0.24 0.18 0.07 0.03 0.02 0.02 0.03 0.02 0.02 0.01 0.00 0.00 0.00 0.00 0.00 0.00 0.00 0.00 0.00 0.00 0.00 0.00 0.00 0.00 0.00 0.00 0.00 0.00 0.00 0.00 0.00 0.00
0.01 0.01 0.01 0.01 0.01 0.01 0.01 0.01 0.02 0.04 0.11 0.18 0.25 0.23 0.10 0.04 0.03 0.04 0.04 0.02 0.01 0.01 0.00 0.00 0.00 0.00 0.00 0.00 0.00 0.00 0.00 0.00 0.00 0.00 0.00 0.00 0.00 0.00 0.00 0.00 0.00 0.00 0.00 0.00
0.01 0.01 0.01 0.01 0.01 0.01 0.02 0.02 0.02 0.02 0.06 0.07 0.11 0.11 0.06 0.04 0.02 0.04 0.03 0.01 0.00 0.01 0.01 0.00 0.00 0.00 0.00 0.00 0.00 0.00 0.00 0.00 0.00 0.00 0.00 0.00 0.00 0.00 0.00 0.00 0.00 0.00 0.00 0.00
0.01 0.01 0.01 0.02 0.02 0.02 0.02 0.01 0.01 0.02 0.03 0.05 0.05 0.05 0.02 0.02 0.01 0.02 0.01 0.00 0.00 0.00 0.00 0.00 0.00 0.00 0.00 0.00 0.00 0.00 0.00 0.00 0.00 0.00 0.00 0.00 0.00 0.00 0.00 0.00 0.00 0.00 0.00 0.00
0.01 0.01 0.01 0.02 0.02 0.02 0.01 0.01 0.01 0.01 0.01 0.02 0.05 0.04 0.02 0.01 0.01 0.01 0.00 0.00 0.00 0.00 0.00 0.00 0.00 0.00 0.00 0.00 0.00 0.00 0.00 0.00 0.00 0.00 0.00 0.00 0.00 0.00 0.00 0.00 0.00 0.00 0.00 0.00
0.00 0.00 0.01 0.02 0.02 0.02 0.01 0.01 0.01 0.01 0.01 0.02 0.02 0.02 0.02 0.01 0.00 0.00 0.00 0.00 0.00 0.00 0.00 0.00 0.00 0.00 0.00 0.00 0.00 0.00 0.00 0.00 0.00 0.00 0.00 0.00 0.00 0.00 0.00 0.00 0.00 0.00 0.00 0.00
0.00 0.00 0.01 0.02 0.01 0.02 0.01 0.01 0.01 0.00 0.00 0.01 0.02 0.01 0.01 0.00 0.00 0.00 0.00 0.00 0.00 0.00 0.00 0.00 0.00 0.00 0.00 0.00 0.00 0.00 0.00 0.00 0.00 0.00 0.00 0.00 0.00 0.00 0.00 0.00 0.00 0.00 0.00 0.00
0.01 0.01 0.02 0.02 0.02 0.02 0.02 0.01 0.01 0.01 0.00 0.01 0.01 0.00 0.00 0.00 0.00 0.00 0.00 0.00 0.00 0.00 0.00 0.00 0.00 0.00 0.00 0.00 0.00 0.00 0.00 0.00 0.00 0.00 0.00 0.00 0.00 0.00 0.00 0.00 0.00 0.00 0.00 0.00
0.01 0.01 0.02 0.02 0.02 0.03 0.03 0.02 0.01 0.01 0.01 0.01 0.00 0.00 0.00 0.00 0.00 0.00 0.00 0.00 0.00 0.00 0.00 0.00 0.00 0.00 0.00 0.00 0.00 0.00 0.00 0.00 0.00 0.00 0.00 0.00 0.00 0.00 0.00 0.00 0.00 0.00 0.00 0.00
0.02 0.02 0.02 0.02 0.02 0.03 0.02 0.03 0.02 0.02 0.01 0.01 0.00 0.00 0.00 0.00 0.00 0.00 0.00 0.00 0.00 0.00 0.00 0.00 0.00 0.00 0.00 0.00 0.00 0.00 0.00 0.00 0.00 0.00 0.00 0.00 0.00 0.00 0.00 0.00 0.00 0.00 0.00 0.00
0.03 0.03 0.03 0.03 0.03 0.03 0.02 0.03 0.03 0.02 0.01 0.01 0.01 0.01 0.01 0.01 0.01 0.01 0.00 0.00 0.00 0.00 0.00 0.00 0.00 0.00 0.00 0.00 0.00 0.00 0.00 0.00 0.00 0.00 0.00 0.00 0.00 0.00 0.00 0.00 0.00 0.00 0.00 0.00
0.04 0.03 0.03 0.03 0.05 0.04 0.03 0.03 0.03 0.02 0.02 0.01 0.02 0.02 0.01 0.01 0.01 0.01 0.00 0.00 0.00 0.00 0.00 0.00 0.00 0.00 0.00 0.00 0.00 0.00 0.00 0.00 0.00 0.00 0.00 0.00 0.00 0.00 0.00 0.00 0.00 0.00 0.00 0.00
0.09 0.08 0.05 0.05 0.07 0.05 0.05 0.04 0.03 0.04 0.03 0.04 0.03 0.02 0.02 0.02 0.03 0.01 0.00 0.00 0.00 0.00 0.00 0.00 0.00 0.00 0.00 0.00 0.00 0.00 0.00 0.00 0.00 0.00 0.00 0.00 0.00 0.00 0.00 0.00 0.00 0.00 0.00 0.00
0.12 0.15 0.14 0.11 0.11 0.09 0.08 0.05 0.04 0.04 0.04 0.05 0.04 0.02 0.02 0.01 0.01 0.01 0.00 0.00 0.00 0.00 0.00 0.00 0.00 0.00 0.00 0.00 0.00 0.00 0.00 0.00 0.00 0.01 0.00 0.00 0.00 0.00 0.00 0.00 0.00 0.00 0.00 0.00
0.16 0.18 0.24 0.23 0.19 0.13 0.13 0.10 0.08 0.07 0.06 0.05 0.04 0.03 0.02 0.02 0.01 0.00 0.00 0.00 0.00 0.00 0.00 0.00 0.00 0.00 0.00 0.00 0.00 0.00 0.00 0.00 0.01 0.01 0.00 0.00 0.00 0.00 0.00 0.00 0.00 0.00 0.00 0.00
0.15 0.13 0.16 0.20 0.18 0.15 0.14 0.10 0.08 0.07 0.05 0.04 0.03 0.01 0.01 0.01 0.01 0.00 0.00 0.00 0.00 0.00 0.00 0.00 0.00 0.00 0.00 0.00 0.00 0.00 0.00 0.00 0.00 0.00 0.00 0.00 0.00 0.00 0.00 0.00 0.00 0.00 0.00 0.00
0.05 0.05 0.10 0.16 0.17 0.19 0.17 0.11 0.05 0.03 0.02 0.02 0.01 0.01 0.01 0.00 0.00 0.00 0.00 0.00 0.00 0.00 0.00 0.00 0.00 0.00 0.00 0.00 0.00 0.00 0.00 0.00 0.00 0.00 0.00 0.00 0.00 0.00 0.00 0.00 0.00 0.00 0.00 0.01
0.05 0.05 0.08 0.13 0.12 0.13 0.08 0.06 0.06 0.04 0.04 0.03 0.02 0.01 0.01 0.00 0.00 0.00 0.00 0.00 0.00 0.00 0.01 0.01 0.00 0.00 0.00 0.00 0.00 0.00 0.00 0.00 0.00 0.00 0.00 0.00 0.00 0.00 0.00 0.00 0.00 0.00 0.01 0.01
MSLP
1011.18 1011.73 1012.20 1012.61 1013.01 1013.43 1013.90 1014.42 1014.95 1015.42 1015.80 1016.02 1016.05 1015.90 1015.60 1015.22 1014.83 1014.50 1014.27 1014.18 1014.22 1014.36 1014.54 1014.72 1014.84 1014.88 1014.83 1014.71 1014.54 1014.39 1014.27 1014.21 1014.23 1014.30 1014.41 1014.51 1014.57 1014.56 1014.49 1014.37 1014.23 1014.11 1014.05 1014.07
1011.65 1012.10 1012.46 1012.77 1013.11 1013.55 1014.09 1014.73 1015.41 1016.04 1016.52 1016.79 1016.80 1016.55 1016.10 1015.54 1014.97 1014.51 1014.21 1014.13 1014.24 1014.50 1014.84 1015.16 1015.40 1015.51 1015.49 1015.36 1015.16 1014.96 1014.81 1014.75 1014.78 1014.88 1015.02 1015.13 1015.19 1015.16 1015.02 1014.81 1014.56 1014.34 1014.18 1014.13
1011.79 1012.15 1012.41 1012.66 1013.01 1013.50 1014.18 1015.00 1015.88 1016.69 1017.31 1017.65 1017.64 1017.30 1016.70 1015.94 1015.18 1014.55 1014.15 1014.03 1014.17 1014.52 1014.98 1015.44 1015.79 1015.99 1016.02 1015.90 1015.70 1015.47 1015.31 1015.24 1015.29 1015.43 1015.60 1015.76 1015.83 1015.79 1015.62 1015.35 1015.03 1014.72 1014.47 1014.35
1011.64 1011.90 1012.09 1012.32 1012.71 1013.32 1014.17 1015.21 1016.32 1017.35 1018.14 1018.57 1018.56 1018.14 1017.38 1016.42 1015.46 1014.64 1014.10 1013.90 1014.03 1014.43 1014.98 1015.54 1016.00 1016.28 1016.37 1016.28 1016.08 1015.85 1015.68 1015.62 1015.69 1015.86 1016.08 1016.28 1016.40 1016.38 1016.21 1015.92 1015.57 1015.21 1014.91 1014.73
1011.32 1011.48 1011.62 1011.85 1012.31 1013.07 1014.11 1015.39 1016.75 1018.00 1018.95 1019.47 1019.48 1018.98 1018.09 1016.95 1015.78 1014.78 1014.08 1013.78 1013.86 1014.26 1014.85 1015.49 1016.03 1016.39 1016.53 1016.48 1016.29 1016.08 1015.91 1015.85 1015.94 1016.14 1016.40 1016.65 1016.82 1016.85 1016.72 1016.46 1016.10 1015.74 1015.42 1015.20
1011.00 1011.07 1011.16 1011.41 1011.94 1012.84 1014.07 1015.56 1017.13 1018.56 1019.66 1020.26 1020.28 1019.73 1018.72 1017.43 1016.09 1014.92 1014.08 1013.66 1013.67 1014.05 1014.66 1015.33 1015.93 1016.35 1016.54 1016.53 1016.37 1016.16 1015.99 1015.94 1016.03 1016.26 1016.55 1016.84 1017.07 1017.16 1017.09 1016.88 1016.57 1016.23 1015.92 1015.70
1010.83 1010.80 1010.84 1011.10 1011.70 1012.70 1014.07 1015.70 1017.41 1018.97 1020.16 1020.81 1020.84 1020.26 1019.17 1017.78 1016.32 1015.02 1014.07 1013.56 1013.51 1013.85 1014.45 1015.14 1015.77 1016.23 1016.46 1016.48 1016.35 1016.15 1015.99 1015.94 1016.03 1016.25 1016.56 1016.89 1017.15 1017.30 1017.30 1017.16 1016.92 1016.63 1016.36 1016.15
1010.87 1010.75 1010.75 1011.01 1011.64 1012.68 1014.11 1015.80 1017.55 1019.14 1020.35 1021.01 1021.03 1020.43 1019.33 1017.89 1016.39 1015.04 1014.04 1013.47 1013.38 1013.68 1014.27 1014.96 1015.60 1016.09 1016.36 1016.41 1016.30 1016.12 1015.96 1015.90 1015.98 1016.19 1016.49 1016.83 1017.12 1017.31 1017.37 1017.30 1017.13 1016.90 1016.67 1016.49
1011.07 1010.90 1010.88 1011.13 1011.75 1012.77 1014.16 1015.79 1017.48 1019.00 1020.15 1020.77 1020.78 1020.18 1019.10 1017.71 1016.25 1014.94 1013.96 1013.40 1013.30 1013.59 1014.15 1014.83 1015.48 1015.98 1016.27 1016.35 1016.27 1016.11 1015.96 1015.89 1015.95 1016.13 1016.41 1016.73 1017.03 1017.24 1017.34 1017.32 1017.20 1017.03 1016.85 1016.70
1011.32 1011.15 1011.12 1011.36 1011.94 1012.89 1014.15 1015.63 1017.15 1018.51 1019.53 1020.06 1020.04 1019.48 1018.48 1017.21 1015.88 1014.70 1013.81 1013.32 1013.25 1013.55 1014.10 1014.76 1015.40 1015.90 1016.20 1016.32 1016.27 1016.14 1016.00 1015.93 1015.97 1016.13 1016.37 1016.66 1016.93 1017.13 1017.24 1017.25 1017.17 1017.04 1016.90 1016.77
1011.45 1011.34 1011.36 1011.60 1012.12 1012.94 1014.02 1015.26 1016.53 1017.65 1018.48 1018.90 1018.85 1018.35 1017.49 1016.41 1015.29 1014.30 1013.59 1013.22 1013.23 1013.55 1014.09 1014.73 1015.34 1015.82 1016.14 1016.27 1016.26 1016.17 1016.07 1016.02 1016.05 1016.18 1016.39 1016.63 1016.86 1017.03 1017.12 1017.12 1017.06 1016.94 1016.82 1016.71
1011.34 1011.35 1011.47 1011.74 1012.21 1012.88 1013.74 1014.70 1015.67 1016.52 1017.12 1017.41 1017.34 1016.92 1016.23 1015.39 1014.53 1013.80 1013.31 1013.10 1013.20 1013.56 1014.09 1014.68 1015.26 1015.71 1016.02 1016.18 1016.21 1016.17 1016.11 1016.09 1016.14 1016.26 1016.43 1016.63 1016.81 1016.93 1016.99 1016.97 1016.89 1016.78 1016.65 1016.54
1010.96 1011.15 1011.40 1011.73 1012.16 1012.70 1013.33 1014.01 1014.66 1015.22 1015.60 1015.76 1015.66 1015.34 1014.84 1014.26 1013.70 1013.25 1012.99 1012.96 1013.16 1013.55 1014.06 1014.60 1015.11 1015.53 1015.82 1015.99 1016.06 1016.07 1016.07 1016.10 1016.17 1016.30 1016.46 1016.62 1016.75 1016.83 1016.84 1016.79 1016.69 1016.55 1016.42 1016.31
1010.40 1010.79 1011.19 1011.60 1012.01 1012.43 1012.86 1013.27 1013.63 1013.91 1014.08 1014.12 1014.01 1013.79 1013.48 1013.16 1012.88 1012.71 1012.68 1012.82 1013.10 1013.51 1013.98 1014.47 1014.90 1015.26 1015.52 1015.69 1015.79 1015.86 1015.92 1016.00 1016.11 1016.26 1016.41 1016.54 1016.65 1016.68 1016.66 1016.58 1016.45 1016.30 1016.15 1016.03
1009.82 1010.40 1010.96 1011.45 1011.85 1012.18 1012.43 1012.61 1012.72 1012.76 1012.74 1012.67 1012.56 1012.42 1012.29 1012.20 1012.17 1012.24 1012.41 1012.68 1013.03 1013.44 1013.87 1014.28 1014.63 1014.91 1015.13 1015.29 1015.41 1015.52 1015.64 1015.77 1015.93 1016.09 1016.25 1016.38 1016.46 1016.47 1016.42 1016.31 1016.17 1016.01 1015.86 1015.73
1009.41 1010.15 1010.82 1011.38 1011.79 1012.05 1012.16 1012.15 1012.04 1011.89 1011.72 1011.55 1011.42 1011.35 1011.36 1011.45 1011.62 1011.87 1012.19 1012.57 1012.96 1013.36 1013.73 1014.05 1014.32 1014.53 1014.70 1014.84 1014.97 1015.11 1015.27 1015.44 1015.63 1015.82 1015.98 1016.11 1016.17 1016.18 1016.12 1016.01 1015.86 1015.70 1015.55 1015.42
1009.33 1010.16 1010.90 1011.49 1011.89 1012.08 1012.08 1011.93 1011.67 1011.36 1011.06 1010.82 1010.66 1010.63 1010.72 1010.92 1011.23 1011.61 1012.03 1012.46 1012.88 1013.25 1013.56 1013.82 1014.01 1014.16 1014.28 1014.40 1014.52 1014.67 1014.85 1015.05 1015.26 1015.46 1015.63 1015.75 1015.82 1015.82 1015.76 1015.66 1015.53 1015.38 1015.25 1015.13
1009.63 1010.47 1011.22 1011.79 1012.16 1012.30 1012.22 1011.96 1011.58 1011.16 1010.76 1010.45 1010.26 1010.22 1010.34 1010.60 1010.97 1011.41 1011.88 1012.33 1012.74 1013.09 1013.36 1013.57 1013.71 1013.81 1013.90 1014.00 1014.12 1014.27 1014.45 1014.66 1014.87 1015.07 1015.23 1015.35 1015.41 1015.42 1015.38 1015.29 1015.18 1015.07 1014.96 1014.85
1010.23 1011.01 1011.70 1012.22 1012.53 1012.61 1012.47 1012.14 1011.69 1011.19 1010.72 1010.34 1010.10 1010.03 1010.13 1010.38 1010.75 1011.20 1011.66 1012.12 1012.52 1012.85 1013.10 1013.28 1013.40 1013.49 1013.57 1013.66 1013.78 1013.93 1014.11 1014.31 1014.51 1014.69 1014.85 1014.96 1015.02 1015.03 1015.00 1014.94 1014.86 1014.77 1014.67 1014.59
1010.94 1011.60 1012.20 1012.64 1012.88 1012.90 1012.72 1012.35 1011.86 1011.32 1010.79 1010.36 1010.06 1009.92 1009.96 1010.16 1010.48 1010.89 1011.33 1011.76 1012.15 1012.47 1012.73 1012.92 1013.06 1013.17 1013.27 1013.37 1013.50 1013.66 1013.83 1014.02 1014.20 1014.37 1014.51 1014.61 1014.66 1014.68 1014.66 1014.62 1014.56 1014.48 1014.41 1014.33
1011.53 1012.07 1012.53 1012.88 1013.05 1013.03 1012.83 1012.45 1011.95 1011.40 1010.85 1010.37 1010.01 1009.79 1009.74 1009.85 1010.09 1010.42 1010.81 1011.21 1011.59 1011.92 1012.21 1012.44 1012.62 1012.78 1012.93 1013.08 1013.24 1013.41 1013.59 1013.77 1013.94 1014.09 1014.22 1014.31 1014.36 1014.38 1014.37 1014.33 1014.28 1014.21 1014.13 1014.05
1011.84 1012.23 1012.58 1012.83 1012.95 1012.91 1012.71 1012.35 1011.88 1011.34 1010.78 1010.28 1009.86 1009.57 1009.42 1009.42 1009.56 1009.80 1010.12 1010.48 1010.84 1011.20 1011.53 1011.82 1012.08 1012.31 1012.53 1012.73 1012.93 1013.14 1013.33 1013.52 1013.69 1013.84 1013.96 1014.04 1014.09 1014.11 1014.10 1014.06 1014.00 1013.92 1013.83 1013.73
1011.75 1012.03 1012.27 1012.45 1012.53 1012.49 1012.32 1012.02 1011.59 1011.10 1010.57 1010.05 1009.59 1009.23 1008.99 1008.89 1008.92 1009.07 1009.31 1009.62 1009.98 1010.35 1010.72 1011.08 1011.41 1011.72 1012.02 1012.29 1012.55 1012.79 1013.02 1013.23 1013.41 1013.56 1013.69 1013.77 1013.83 1013.84 1013.82 1013.77 1013.70 1013.59 1013.48 1013.35
1011.29 1011.48 1011.66 1011.79 1011.86 1011.85 1011.73 1011.50 1011.16 1010.72 1010.24 1009.74 1009.27 1008.85 1008.54 1008.34 1008.27 1008.33 1008.50 1008.76 1009.09 1009.47 1009.87 1010.28 1010.68 1011.07 1011.42 1011.76 1012.07 1012.36 1012.62 1012.85 1013.05 1013.22 1013.35 1013.45 1013.51 1013.52 1013.49 1013.42 1013.32 1013.19 1013.04 1012.87
1010.61 1010.74 1010.86 1010.98 1011.07 1011.10 1011.04 1010.90 1010.65 1010.30 1009.89 1009.42 1008.96 1008.52 1008.16 1007.89 1007.74 1007.72 1007.82 1008.03 1008.33 1008.70 1009.10 1009.54 1009.97 1010.40 1010.80 1011.17 1011.51 1011.83 1012.11 1012.36 1012.59 1012.77 1012.92 1013.03 1013.09 1013.11 1013.07 1012.98 1012.85 1012.68 1012.49 1012.29
1009.89 1009.98 1010.09 1010.21 1010.31 1010.39 1010.41 1010.35 1010.21 1009.96 1009.62 1009.22 1008.78 1008.36 1007.97 1007.66 1007.46 1007.38 1007.41 1007.56 1007.82 1008.15 1008.54 1008.96 1009.38 1009.80 1010.20 1010.58 1010.92 1011.23 1011.52 1011.78 1012.01 1012.21 1012.37 1012.49 1012.56 1012.57 1012.52 1012.41 1012.25 1012.05 1011.83 1011.59
Thickness
5790 5771 5757 5765 5769 5767 5764 5755 5746 5749 5759 5748 5735 5731 5734 5738 5736 5733 5732 5732 5732 5733 5739 5741 5743 5745 5744 5742 5740 5738 5736 5735 5734 5732 5728 5726 5723 5723 5722 5721 5719 5718 5716 5714
5769 5762 5781 5788 5785 5776 5765 5751 5744 5744 5752 5741 5728 5727 5734 5737 5733 5733 5732 5732 5731 5730 5732 5734 5736 5737 5737 5735 5734 5732 5731 5729 5728 5726 5724 5722 5719 5717 5716 5714 5713 5712 5711 5710
5762 5779 5796 5789 5781 5772 5763 5752 5747 5740 5741 5737 5727 5717 5723 5730 5733 5733 5734 5734 5733 5732 5730 5731 5732 5732 5732 5731 5729 5729 5726 5724 5722 5721 5720 5717 5714 5711 5709 5707 5706 5706 5706 5705
5775 5793 5794 5786 5778 5775 5755 5768 5762 5747 5727 5710 5716 5696 5711 5721 5724 5729 5731 5731 5731 5732 5731 5731 5731 5729 5729 5728 5727 5725 5723 5720 5718 5717 5714 5710 5705 5701 5701 5700 5700 5701 5700 5700
5775 5789 5788 5781 5783 5780 5763 5770 5758 5744 5722 5706 5706 5696 5703 5717 5717 5723 5729 5732 5732 5732 5732 5731 5730 5729 5728 5727 5725 5722 5720 5717 5715 5713 5710 5706 5702 5699 5697 5696 5695 5694 5694 5693
5784 5798 5796 5791 5793 5789 5773 5757 5743 5728 5712 5693 5700 5695 5698 5712 5721 5726 5731 5735 5735 5734 5733 5731 5730 5728 5726 5725 5723 5720 5717 5714 5712 5710 5707 5703 5699 5696 5693 5690 5688 5687 5686 5686
5770 5784 5796 5797 5777 5776 5768 5737 5711 5702 5689 5689 5703 5701 5706 5729 5737 5738 5736 5737 5738 5736 5733 5730 5728 5726 5724 5723 5721 5718 5715 5711 5709 5707 5704 5701 5698 5694 5690 5687 5684 5682 5680 5679
5749 5753 5783 5792 5781 5767 5762 5745 5713 5696 5685 5689 5701 5699 5720 5744 5748 5748 5746 5743 5740 5736 5734 5732 5731 5728 5726 5723 5720 5717 5713 5709 5707 5705 5702 5699 5696 5692 5688 5686 5683 5680 5677 5675
5749 5753 5788 5796 5797 5783 5761 5746 5740 5710 5694 5685 5694 5709 5730 5748 5746 5746 5744 5741 5738 5737 5736 5734 5732 5729 5727 5724 5720 5717 5712 5708 5706 5703 5700 5697 5693 5690 5686 5683 5681 5677 5675 5672
5765 5753 5775 5790 5792 5785 5775 5757 5730 5709 5689 5683 5692 5701 5709 5729 5736 5741 5741 5740 5739 5738 5737 5734 5732 5730 5727 5724 5720 5717 5713 5708 5705 5702 5699 5696 5692 5688 5685 5681 5677 5674 5671 5668
5772 5752 5760 5768 5764 5762 5765 5754 5734 5714 5708 5690 5681 5701 5741 5740 5743 5742 5743 5745 5743 5740 5738 5735 5732 5729 5726 5723 5719 5715 5711 5708 5704 5701 5698 5694 5690 5686 5682 5678 5675 5671 5668 5665
5771 5748 5738 5753 5771 5778 5770 5760 5740 5716 5710 5705 5696 5712 5763 5758 5754 5751 5750 5750 5748 5744 5739 5735 5731 5728 5724 5720 5717 5714 5711 5707 5704 5700 5696 5692 5688 5684 5680 5676 5672 5669 5665 5661
5768 5742 5725 5730 5743 5760 5761 5763 5754 5734 5718 5706 5699 5720 5762 5759 5755 5755 5753 5751 5747 5741 5736 5732 5729 5725 5722 5719 5717 5714 5710 5707 5703 5699 5694 5690 5685 5681 5677 5674 5670 5666 5661 5657
5773 5744 5731 5724 5732 5747 5750 5758 5757 5739 5716 5713 5718 5732 5748 5752 5751 5752 5752 5749 5745 5740 5736 5730 5726 5723 5722 5719 5716 5713 5709 5706 5702 5698 5693 5688 5684 5680 5676 5672 5667 5663 5658 5653
5764 5744 5748 5750 5756 5756 5754 5757 5759 5750 5740 5729 5735 5740 5750 5756 5757 5756 5752 5747 5742 5737 5733 5731 5726 5722 5720 5717 5715 5712 5708 5705 5701 5696 5691 5687 5683 5679 5674 5669 5665 5660 5655 5651
5755 5745 5746 5746 5755 5755 5753 5760 5761 5760 5759 5752 5749 5747 5763 5764 5760 5754 5750 5748 5742 5738 5736 5732 5728 5724 5721 5718 5715 5711 5707 5704 5700 5695 5690 5686 5681 5676 5672 5667 5662 5657 5652 5647
5743 5737 5730 5725 5742 5743 5735 5753 5757 5759 5765 5759 5746 5754 5761 5756 5756 5753 5751 5749 5745 5741 5738 5734 5730 5727 5723 5719 5716 5710 5706 5702 5698 5693 5689 5684 5679 5674 5669 5665 5659 5654 5648 5643
5740 5731 5721 5718 5725 5713 5739 5765 5767 5764 5765 5769 5768 5767 5768 5767 5764 5761 5757 5751 5747 5744 5740 5736 5732 5727 5723 5719 5715 5710 5706 5701 5696 5691 5686 5682 5677 5672 5667 5662 5656 5651 5646 5640
5745 5732 5716 5707 5706 5717 5743 5758 5760 5754 5752 5768 5767 5766 5766 5764 5755 5750 5756 5756 5752 5749 5744 5739 5734 5728 5722 5718 5714 5708 5703 5698 5693 5689 5684 5680 5675 5670 5664 5658 5654 5649 5643 5638
5737 5730 5714 5704 5702 5703 5730 5754 5766 5757 5738 5760 5764 5762 5759 5754 5734 5738 5753 5754 5751 5748 5743 5738 5732 5726 5720 5716 5711 5705 5699 5694 5691 5688 5683 5679 5674 5668 5662 5657 5652 5647 5641 5636
5714 5711 5704 5699 5699 5713 5737 5752 5758 5728 5732 5755 5759 5760 5758 5752 5752 5756 5754 5751 5748 5745 5740 5736 5729 5723 5718 5714 5708 5701 5696 5692 5690 5686 5681 5676 5671 5665 5660 5655 5650 5645 5639 5633
5703 5700 5696 5693 5692 5706 5739 5741 5735 5736 5749 5754 5757 5760 5758 5757 5756 5753 5751 5747 5743 5739 5735 5731 5725 5719 5715 5711 5705 5698 5693 5692 5688 5683 5677 5672 5667 5663 5660 5652 5647 5642 5636 5629
5704 5706 5702 5700 5705 5725 5734 5734 5741 5743 5745 5750 5753 5756 5756 5754 5751 5748 5745 5742 5740 5737 5732 5728 5721 5715 5710 5706 5702 5695 5692 5689 5683 5678 5672 5668 5664 5659 5655 5649 5643 5638 5632 5626
5705 5708 5702 5701 5712 5722 5731 5739 5743 5745 5747 5750 5752 5754 5753 5749 5747 5744 5740 5737 5734 5731 5727 5722 5716 5709 5704 5701 5698 5695 5691 5685 5679 5673 5668 5664 5659 5655 5651 5646 5641 5634 5629 5623
5708 5705 5699 5700 5711 5719 5729 5736 5741 5745 5747 5748 5749 5751 5750 5746 5742 5739 5737 5734 5730 5726 5722 5717 5711 5706 5702 5699 5695 5692 5687 5681 5674 5669 5664 5659 5655 5650 5646 5642 5638 5633 5629 5624
5712 5708 5703 5704 5717 5717 5725 5737 5739 5737 5738 5741 5741 5742 5744 5744 5740 5736 5733 5730 5725 5720 5716 5711 5706 5703 5699 5694 5690 5686 5682 5676 5670 5664 5659 5654 5650 5646 5642 5637 5634 5633 5628 5624